sat.trackr.live / text

‹ back to catalog

RASSVET-3 14

NORAD 68373 · 2026-061P

PAYLOAD ACTIVE UNKNOWN

§ Identity

Operator
Country
CIS
Launch date
2026-03-23
Launch site
PLMSC
Launch vehicle
Mass (kg)
RCS (m²)

External: N2YO · Heavens-Above · Gunter

§ Orbital elements

Epoch: 2026-05-25T04:37:32.011104Z

Period
90.83 min
Inclination
82.2970°
Eccentricity
0.0004796
Mean motion
15.85335048 rev/d
Perigee alt
312.2 km
Apogee alt
318.6 km
Semi-major
6,693.5 km
B*
3.1025e-4
RAAN
37.9769°
Arg perigee
178.2346°
Mean anomaly
181.8941°
Rev number
992

§ Raw data

RASSVET-3 141 68373U 26061P   26145.19273161  .00074101  00000+0  31025-3 0  99962 68373  82.2970  37.9769 0004796 178.2346 181.8941 15.85335048  9929

JSON: /api/v1/satellites/68373 · /tle

For live sub-satellite position, see the globe view (requires WebGL).

§ Visibility from observer

Set your observer location to see the next 7 days of passes ≥ 10°. The values pass through the URL so the page stays shareable.

No JS? Fill the form by hand. The geolocation button needs JavaScript.